| time (UTC) | temp F | wind direction | speed MPH | gust MPH | rain 1hr in | rain 24hr in | rain mn in | humidity % | barometer mb |
| 20260509141332 | 59 | 212 | 3.0 | 7.0 | 0.00 | 0.00 | 0.00 | 79 | 1011.4 |
| 20260509141053 | 60 | 239 | 3.0 | 10.0 | 0.00 | 0.00 | 0.00 | 78 | 1011.4 |
| 20260509140817 | 60 | 187 | 4.0 | 10.0 | 0.00 | 0.00 | 0.00 | 77 | 1011.4 |
| 20260509135826 | 60 | 200 | 3.0 | 7.0 | 0.00 | 0.00 | 0.00 | 77 | 1011.3 |
| 20260509135605 | 60 | 190 | 3.0 | 8.0 | 0.00 | 0.00 | 0.00 | 77 | 1011.3 |
| 20260509135430 | 60 | 216 | 3.0 | 8.0 | 0.00 | 0.00 | 0.00 | 77 | 1011.3 |
| 20260509134559 | 60 | 167 | 4.0 | 8.0 | 0.00 | 0.00 | 0.00 | 77 | 1011.2 |
| 20260509133831 | 60 | 201 | 3.0 | 8.0 | 0.00 | 0.00 | 0.00 | 76 | 1011.0 |
| 20260509133328 | 60 | 182 | 3.0 | 7.0 | 0.00 | 0.00 | 0.00 | 77 | 1011.0 |
| 20260509133306 | 60 | 180 | 3.0 | 9.0 | 0.00 | 0.00 | 0.00 | 77 | 1011.0 |
| 20260509132331 | 60 | 164 | 4.0 | 9.0 | 0.00 | 0.00 | 0.00 | 76 | 1011.1 |
| 20260509132056 | 60 | 228 | 5.0 | 9.0 | 0.00 | 0.00 | 0.00 | 76 | 1011.1 |
| 20260509131328 | 60 | 175 | 5.0 | 9.0 | 0.00 | 0.00 | 0.00 | 76 | 1011.1 |
| 20260509130828 | 60 | 190 | 4.0 | 8.0 | 0.00 | 0.00 | 0.00 | 76 | 1011.1 |
| 20260509130543 | 60 | 211 | 3.0 | 6.0 | 0.00 | 0.00 | 0.00 | 76 | 1011.1 |
| 20260509130036 | 59 | 193 | 3.0 | 6.0 | 0.00 | 0.00 | 0.00 | 77 | 1011.1 |
| 20260509125311 | 59 | 225 | 3.0 | 9.0 | 0.00 | 0.00 | 0.00 | 78 | 1011.1 |
| 20260509124804 | 59 | 145 | 3.0 | 9.0 | 0.00 | 0.00 | 0.00 | 78 | 1011.1 |
| 20260509124253 | 58 | 91 | 2.0 | 8.0 | 0.00 | 0.00 | 0.00 | 79 | 1011.0 |
| 20260509124014 | 58 | 144 | 2.0 | 8.0 | 0.00 | 0.00 | 0.00 | 79 | 1010.9 |
| 20260509123245 | 58 | 150 | 1.0 | 5.0 | 0.00 | 0.00 | 0.00 | 79 | 1011.0 |
| 20260509122748 | 58 | 186 | 0.0 | 3.0 | 0.00 | 0.00 | 0.00 | 80 | 1011.0 |
| 20260509122249 | 58 | 188 | 0.0 | 1.0 | 0.00 | 0.00 | 0.00 | 81 | 1011.2 |
| 20260509121745 | 57 | 188 | 0.0 | 1.0 | 0.00 | 0.00 | 0.00 | 82 | 1011.2 |
| 20260509121244 | 57 | 188 | 0.0 | 0.0 | 0.00 | 0.00 | 0.00 | 83 | 1011.1 |
| 20260509120754 | 56 | 188 | 0.0 | 0.0 | 0.00 | 0.00 | 0.00 | 84 | 1011.1 |
| 20260509120238 | 56 | 188 | 0.0 | 0.0 | 0.00 | 0.00 | 0.00 | 84 | 1011.1 |
| 20260509115741 | 56 | 188 | 0.0 | 2.0 | 0.00 | 0.00 | 0.00 | 84 | 1011.0 |
| 20260509115238 | 56 | 188 | 0.0 | 2.0 | 0.00 | 0.00 | 0.00 | 84 | 1011.0 |
| 20260509114741 | 56 | 188 | 0.0 | 1.0 | 0.00 | 0.00 | 0.00 | 84 | 1011.2 |
| 20260509114237 | 56 | 188 | 0.0 | 0.0 | 0.00 | 0.00 | 0.00 | 84 | 1011.1 |
| 20260509114005 | 55 | 188 | 0.0 | 0.0 | 0.00 | 0.00 | 0.00 | 84 | 1011.0 |
| 20260509113238 | 55 | 188 | 0.0 | 0.0 | 0.00 | 0.00 | 0.00 | 84 | 1010.9 |
| 20260509112736 | 55 | 188 | 0.0 | 0.0 | 0.00 | 0.00 | 0.00 | 84 | 1010.9 |
| 20260509112715 | 55 | 188 | 0.0 | 0.0 | 0.00 | 0.00 | 0.00 | 84 | 1010.9 |
| 20260509111956 | 55 | 188 | 0.0 | 0.0 | 0.00 | 0.00 | 0.00 | 84 | 1011.0 |
| 20260509111235 | 55 | 188 | 0.0 | 1.0 | 0.00 | 0.00 | 0.00 | 84 | 1011.0 |
| 20260509110737 | 55 | 188 | 0.0 | 1.0 | 0.00 | 0.00 | 0.00 | 84 | 1011.0 |
| 20260509110459 | 55 | 188 | 0.0 | 2.0 | 0.00 | 0.00 | 0.00 | 84 | 1010.9 |
| 20260509110004 | 55 | 188 | 0.0 | 2.0 | 0.00 | 0.00 | 0.00 | 84 | 1010.8 |
| 20260509105239 | 54 | 188 | 0.0 | 0.0 | 0.00 | 0.00 | 0.00 | 85 | 1010.8 |
| 20260509104742 | 54 | 188 | 0.0 | 0.0 | 0.00 | 0.00 | 0.00 | 85 | 1010.8 |
| 20260509104242 | 54 | 188 | 0.0 | 2.0 | 0.00 | 0.00 | 0.00 | 85 | 1010.8 |
| 20260509103741 | 54 | 188 | 0.0 | 2.0 | 0.00 | 0.00 | 0.00 | 85 | 1010.7 |
| 20260509103239 | 54 | 188 | 0.0 | 1.0 | 0.00 | 0.00 | 0.00 | 85 | 1010.9 |
| 20260509102740 | 53 | 190 | 0.0 | 0.0 | 0.00 | 0.00 | 0.00 | 85 | 1010.7 |
| 20260509102514 | 54 | 190 | 0.0 | 0.0 | 0.00 | 0.00 | 0.00 | 85 | 1010.7 |
| 20260509101739 | 54 | 190 | 0.0 | 0.0 | 0.00 | 0.00 | 0.00 | 84 | 1010.7 |
| 20260509101235 | 54 | 190 | 0.0 | 0.0 | 0.00 | 0.00 | 0.00 | 85 | 1010.6 |
| 20260509100737 | 54 | 190 | 0.0 | 0.0 | 0.00 | 0.00 | 0.00 | 84 | 1010.6 |
| 20260509100235 | 54 | 190 | 0.0 | 2.0 | 0.00 | 0.00 | 0.00 | 84 | 1010.6 |
| 20260509100009 | 54 | 190 | 0.0 | 2.0 | 0.00 | 0.00 | 0.00 | 85 | 1010.5 |
| 20260509095235 | 54 | 190 | 0.0 | 1.0 | 0.00 | 0.00 | 0.00 | 84 | 1010.4 |
| 20260509094735 | 54 | 190 | 0.0 | 2.0 | 0.00 | 0.00 | 0.00 | 84 | 1010.5 |
| 20260509094235 | 53 | 190 | 0.0 | 2.0 | 0.00 | 0.00 | 0.00 | 84 | 1010.5 |
| 20260509093736 | 53 | 190 | 0.0 | 0.0 | 0.00 | 0.00 | 0.00 | 84 | 1010.5 |
| 20260509093232 | 53 | 190 | 0.0 | 0.0 | 0.00 | 0.00 | 0.00 | 84 | 1010.6 |
| 20260509092736 | 54 | 190 | 0.0 | 0.0 | 0.00 | 0.00 | 0.00 | 84 | 1010.7 |
| 20260509092232 | 54 | 190 | 0.0 | 2.0 | 0.00 | 0.00 | 0.00 | 84 | 1010.7 |
| 20260509091733 | 54 | 190 | 0.0 | 2.0 | 0.00 | 0.00 | 0.00 | 84 | 1010.7 |
| 20260509091228 | 53 | 190 | 0.0 | 1.0 | 0.00 | 0.00 | 0.00 | 83 | 1010.7 |
| 20260509090726 | 53 | 190 | 0.0 | 0.0 | 0.00 | 0.00 | 0.00 | 83 | 1010.7 |
| 20260509090238 | 54 | 190 | 0.0 | 0.0 | 0.00 | 0.00 | 0.00 | 83 | 1010.7 |
| 20260509085948 | 54 | 190 | 0.0 | 1.0 | 0.00 | 0.00 | 0.00 | 83 | 1010.7 |
| 20260509085219 | 53 | 190 | 0.0 | 1.0 | 0.00 | 0.00 | 0.00 | 83 | 1010.7 |
| 20260509084723 | 54 | 190 | 0.0 | 1.0 | 0.00 | 0.00 | 0.00 | 83 | 1010.9 |
| 20260509084225 | 54 | 192 | 0.0 | 2.0 | 0.00 | 0.00 | 0.00 | 83 | 1010.8 |
| 20260509083718 | 53 | 192 | 0.0 | 2.0 | 0.00 | 0.00 | 0.00 | 82 | 1010.9 |
| 20260509083210 | 53 | 192 | 0.0 | 2.0 | 0.00 | 0.00 | 0.00 | 82 | 1010.9 |
| 20260509082718 | 54 | 192 | 0.0 | 1.0 | 0.00 | 0.00 | 0.00 | 82 | 1010.9 |
| 20260509082158 | 54 | 192 | 0.0 | 3.0 | 0.00 | 0.00 | 0.00 | 81 | 1011.0 |
| 20260509081648 | 53 | 192 | 1.0 | 3.0 | 0.00 | 0.00 | 0.00 | 81 | 1011.0 |
| 20260509081145 | 53 | 193 | 1.0 | 4.0 | 0.00 | 0.00 | 0.00 | 81 | 1011.0 |
| 20260509081127 | 53 | 193 | 0.0 | 4.0 | 0.00 | 0.00 | 0.00 | 81 | 1011.0 |
| 20260509080134 | 53 | 212 | 0.0 | 2.0 | 0.00 | 0.00 | 0.00 | 80 | 1011.0 |
| 20260509075627 | 53 | 211 | 0.0 | 2.0 | 0.00 | 0.00 | 0.00 | 80 | 1011.0 |
| 20260509075123 | 53 | 211 | 1.0 | 3.0 | 0.00 | 0.00 | 0.00 | 80 | 1011.1 |
| 20260509074619 | 53 | 211 | 1.0 | 4.0 | 0.00 | 0.00 | 0.00 | 80 | 1011.2 |
| 20260509074111 | 53 | 213 | 2.0 | 4.0 | 0.00 | 0.00 | 0.00 | 79 | 1011.2 |
| 20260509073605 | 53 | 129 | 1.0 | 4.0 | 0.00 | 0.00 | 0.00 | 79 | 1011.3 |
| 20260509073324 | 53 | 128 | 2.0 | 4.0 | 0.00 | 0.00 | 0.00 | 79 | 1011.3 |
| 20260509072553 | 53 | 128 | 2.0 | 4.0 | 0.00 | 0.00 | 0.00 | 79 | 1011.3 |
| 20260509072539 | 53 | 128 | 2.0 | 4.0 | 0.00 | 0.00 | 0.00 | 79 | 1011.3 |
| 20260509071540 | 53 | 106 | 2.0 | 8.0 | 0.00 | 0.00 | 0.00 | 79 | 1011.1 |
| 20260509071034 | 53 | 151 | 3.0 | 8.0 | 0.00 | 0.00 | 0.00 | 79 | 1011.0 |
| 20260509070528 | 53 | 125 | 3.0 | 7.0 | 0.00 | 0.00 | 0.00 | 79 | 1010.8 |
| 20260509070244 | 53 | 93 | 3.0 | 7.0 | 0.00 | 0.00 | 0.00 | 79 | 1010.9 |
| 20260509065516 | 53 | 128 | 3.0 | 7.0 | 0.00 | 0.00 | 0.00 | 79 | 1010.9 |
| 20260509065011 | 53 | 140 | 3.0 | 7.0 | 0.00 | 0.00 | 0.00 | 78 | 1010.9 |
| 20260509064506 | 53 | 146 | 3.0 | 6.0 | 0.00 | 0.00 | 0.00 | 78 | 1011.0 |
| 20260509063959 | 53 | 140 | 2.0 | 6.0 | 0.00 | 0.00 | 0.00 | 78 | 1011.1 |
| 20260509063724 | 53 | 125 | 2.0 | 6.0 | 0.00 | 0.00 | 0.00 | 78 | 1011.1 |
| 20260509062948 | 53 | 124 | 2.0 | 6.0 | 0.00 | 0.00 | 0.00 | 78 | 1011.3 |
| 20260509062453 | 53 | 113 | 2.0 | 4.0 | 0.00 | 0.00 | 0.00 | 78 | 1011.2 |
| 20260509061934 | 53 | 140 | 1.0 | 4.0 | 0.00 | 0.00 | 0.00 | 78 | 1011.3 |
| 20260509061428 | 53 | 145 | 1.0 | 3.0 | 0.00 | 0.00 | 0.00 | 78 | 1011.4 |
| 20260509060924 | 53 | 145 | 1.0 | 5.0 | 0.00 | 0.00 | 0.00 | 78 | 1011.5 |
| 20260509060416 | 53 | 145 | 1.0 | 5.0 | 0.00 | 0.00 | 0.00 | 78 | 1011.6 |
| 20260509055915 | 53 | 153 | 0.0 | 1.0 | 0.00 | 0.00 | 0.00 | 77 | 1011.8 |
| 20260509055413 | 54 | 153 | 0.0 | 3.0 | 0.00 | 0.00 | 0.00 | 77 | 1011.7 |
| 20260509055356 | 54 | 153 | 1.0 | 3.0 | 0.00 | 0.00 | 0.00 | 76 | 1011.8 |
| 20260509054643 | 54 | 153 | 0.0 | 2.0 | 0.00 | 0.00 | 0.00 | 76 | 1011.8 |
| 20260509053908 | 55 | 153 | 0.0 | 2.0 | 0.00 | 0.00 | 0.00 | 75 | 1011.9 |
| 20260509053408 | 55 | 153 | 0.0 | 2.0 | 0.00 | 0.00 | 0.00 | 74 | 1011.9 |
| 20260509053133 | 56 | 153 | 1.0 | 5.0 | 0.00 | 0.00 | 0.00 | 73 | 1012.0 |
| 20260509052408 | 56 | 153 | 2.0 | 6.0 | 0.00 | 0.00 | 0.00 | 72 | 1011.9 |
| 20260509051904 | 57 | 161 | 3.0 | 9.0 | 0.00 | 0.00 | 0.00 | 71 | 1012.0 |
| 20260509051402 | 57 | 148 | 4.0 | 10.0 | 0.00 | 0.00 | 0.00 | 71 | 1012.0 |
| 20260509050902 | 57 | 221 | 3.0 | 10.0 | 0.00 | 0.00 | 0.00 | 72 | 1012.1 |
| 20260509050622 | 57 | 160 | 2.0 | 7.0 | 0.00 | 0.00 | 0.00 | 72 | 1012.1 |
| 20260509045902 | 57 | 136 | 2.0 | 4.0 | 0.00 | 0.00 | 0.00 | 71 | 1012.1 |
| 20260509045619 | 57 | 136 | 2.0 | 5.0 | 0.00 | 0.00 | 0.00 | 71 | 1012.1 |
| 20260509045125 | 57 | 134 | 2.0 | 5.0 | 0.00 | 0.00 | 0.00 | 72 | 1012.0 |
| 20260509044358 | 57 | 136 | 2.0 | 4.0 | 0.00 | 0.00 | 0.00 | 72 | 1012.1 |
| 20260509044124 | 57 | 135 | 2.0 | 7.0 | 0.00 | 0.00 | 0.00 | 73 | 1012.2 |
| 20260509043358 | 56 | 134 | 2.0 | 7.0 | 0.00 | 0.00 | 0.00 | 74 | 1012.2 |
| 20260509042853 | 56 | 175 | 0.0 | 4.0 | 0.00 | 0.00 | 0.00 | 76 | 1012.2 |
| 20260509042617 | 55 | 235 | 0.0 | 0.0 | 0.00 | 0.00 | 0.00 | 77 | 1012.2 |
| 20260509041841 | 55 | 236 | 0.0 | 1.0 | 0.00 | 0.00 | 0.00 | 76 | 1012.1 |
| 20260509041335 | 54 | 243 | 0.0 | 1.0 | 0.00 | 0.00 | 0.00 | 76 | 1012.1 |
| 20260509041046 | 54 | 242 | 0.0 | 0.0 | 0.00 | 0.00 | 0.00 | 77 | 1012.2 |
| 20260509040322 | 54 | 242 | 0.0 | 0.0 | 0.00 | 0.00 | 0.00 | 77 | 1012.1 |
| 20260509035815 | 54 | 242 | 0.0 | 0.0 | 0.00 | 0.00 | 0.00 | 76 | 1012.1 |
| 20260509035310 | 54 | 242 | 0.0 | 2.0 | 0.00 | 0.00 | 0.00 | 76 | 1012.2 |
| 20260509034803 | 54 | 242 | 1.0 | 2.0 | 0.00 | 0.00 | 0.00 | 76 | 1012.1 |
| 20260509034259 | 54 | 242 | 1.0 | 3.0 | 0.00 | 0.00 | 0.00 | 75 | 1012.1 |
| 20260509033755 | 54 | 242 | 1.0 | 3.0 | 0.00 | 0.00 | 0.00 | 75 | 1012.3 |
| 20260509033255 | 54 | 243 | 0.0 | 0.0 | 0.00 | 0.00 | 0.00 | 74 | 1012.2 |
| 20260509032754 | 54 | 243 | 0.0 | 0.0 | 0.00 | 0.00 | 0.00 | 73 | 1012.0 |
| 20260509032254 | 55 | 243 | 0.0 | 0.0 | 0.00 | 0.00 | 0.00 | 72 | 1012.2 |
| 20260509031755 | 55 | 242 | 0.0 | 0.0 | 0.00 | 0.00 | 0.00 | 72 | 1012.2 |
| 20260509031255 | 56 | 242 | 0.0 | 0.0 | 0.00 | 0.00 | 0.00 | 71 | 1012.4 |
| 20260509030755 | 56 | 242 | 0.0 | 0.0 | 0.00 | 0.00 | 0.00 | 71 | 1012.5 |
| 20260509030256 | 56 | 242 | 0.0 | 0.0 | 0.00 | 0.00 | 0.00 | 72 | 1012.6 |
| 20260509025753 | 56 | 243 | 0.0 | 0.0 | 0.00 | 0.00 | 0.00 | 72 | 1012.8 |
| 20260509025252 | 56 | 243 | 0.0 | 0.0 | 0.00 | 0.00 | 0.00 | 71 | 1012.7 |
| 20260509024754 | 56 | 243 | 0.0 | 0.0 | 0.00 | 0.00 | 0.00 | 69 | 1012.7 |
| 20260509024252 | 56 | 243 | 0.0 | 0.0 | 0.00 | 0.00 | 0.00 | 69 | 1012.7 |
| 20260509024013 | 56 | 243 | 0.0 | 0.0 | 0.00 | 0.00 | 0.00 | 68 | 1012.8 |
| 20260509023250 | 56 | 243 | 0.0 | 0.0 | 0.00 | 0.00 | 0.00 | 68 | 1012.7 |
| 20260509022751 | 56 | 243 | 0.0 | 0.0 | 0.00 | 0.00 | 0.00 | 67 | 1012.6 |
| 20260509022513 | 56 | 242 | 0.0 | 0.0 | 0.00 | 0.00 | 0.00 | 66 | 1012.5 |
| 20260509021749 | 56 | 242 | 0.0 | 0.0 | 0.00 | 0.00 | 0.00 | 65 | 1012.5 |
| 20260509021512 | 56 | 242 | 0.0 | 0.0 | 0.00 | 0.00 | 0.00 | 65 | 1012.3 |
| 20260509020736 | 56 | 242 | 0.0 | 0.0 | 0.00 | 0.00 | 0.00 | 65 | 1012.3 |
| 20260509020235 | 56 | 242 | 0.0 | 0.0 | 0.00 | 0.00 | 0.00 | 66 | 1012.3 |
| 20260509015734 | 56 | 243 | 0.0 | 0.0 | 0.00 | 0.00 | 0.00 | 66 | 1012.3 |
| 20260509015233 | 56 | 243 | 0.0 | 0.0 | 0.00 | 0.00 | 0.00 | 66 | 1012.4 |
| 20260509014732 | 56 | 243 | 0.0 | 0.0 | 0.00 | 0.00 | 0.00 | 66 | 1012.4 |
| 20260509014231 | 56 | 243 | 0.0 | 0.0 | 0.00 | 0.00 | 0.00 | 65 | 1012.3 |
| 20260509013729 | 56 | 243 | 0.0 | 0.0 | 0.00 | 0.00 | 0.00 | 66 | 1012.2 |
| 20260509013230 | 57 | 243 | 0.0 | 0.0 | 0.00 | 0.00 | 0.00 | 64 | 1012.2 |
| 20260509012947 | 57 | 243 | 0.0 | 0.0 | 0.00 | 0.00 | 0.00 | 62 | 1012.1 |
| 20260509012441 | 57 | 242 | 0.0 | 0.0 | 0.00 | 0.00 | 0.00 | 63 | 1012.2 |
| 20260509012323 | 57 | 243 | 0.0 | 0.0 | 0.00 | 0.00 | 0.00 | 62 | 1012.1 |
| 20260509011231 | 57 | 243 | 0.0 | 0.0 | 0.00 | 0.00 | 0.00 | 63 | 1012.0 |
| 20260509010726 | 56 | 243 | 0.0 | 0.0 | 0.00 | 0.00 | 0.00 | 62 | 1011.9 |
| 20260509010226 | 56 | 243 | 0.0 | 0.0 | 0.00 | 0.00 | 0.00 | 62 | 1011.8 |
| 20260509005726 | 57 | 243 | 0.0 | 0.0 | 0.00 | 0.00 | 0.00 | 60 | 1011.8 |
| 20260509005225 | 57 | 243 | 0.0 | 0.0 | 0.00 | 0.00 | 0.00 | 59 | 1011.7 |
| 20260509004721 | 57 | 243 | 0.0 | 0.0 | 0.00 | 0.00 | 0.00 | 58 | 1011.5 |
| 20260509004220 | 58 | 243 | 0.0 | 0.0 | 0.00 | 0.00 | 0.00 | 58 | 1011.4 |
| 20260509003720 | 58 | 243 | 0.0 | 0.0 | 0.00 | 0.00 | 0.00 | 58 | 1011.5 |
| 20260509003220 | 59 | 243 | 0.0 | 0.0 | 0.00 | 0.00 | 0.00 | 56 | 1011.4 |
| 20260509002720 | 59 | 243 | 0.0 | 0.0 | 0.00 | 0.00 | 0.00 | 54 | 1011.3 |
| 20260509002444 | 60 | 243 | 0.0 | 0.0 | 0.00 | 0.00 | 0.00 | 52 | 1011.2 |
| 20260509001717 | 61 | 243 | 0.0 | 0.0 | 0.00 | 0.00 | 0.00 | 52 | 1011.2 |
| 20260509001219 | 61 | 243 | 0.0 | 0.0 | 0.00 | 0.00 | 0.00 | 50 | 1011.1 |
| 20260509000732 | 62 | 243 | 0.0 | 0.0 | 0.00 | 0.00 | 0.00 | 50 | 1011.0 |
| 20260509000659 | 62 | 243 | 0.0 | 0.0 | 0.00 | 0.00 | 0.00 | 48 | 1011.0 |
| 20260508235715 | 63 | 242 | 1.0 | 3.0 | 0.00 | 0.00 | 0.00 | 47 | 1011.0 |
| 20260508235215 | 63 | 242 | 1.0 | 3.0 | 0.00 | 0.00 | 0.00 | 46 | 1011.0 |
| 20260508234715 | 64 | 242 | 1.0 | 3.0 | 0.00 | 0.00 | 0.00 | 45 | 1011.0 |
| 20260508234435 | 64 | 242 | 2.0 | 3.0 | 0.00 | 0.00 | 0.00 | 45 | 1010.9 |
| 20260508233713 | 64 | 242 | 2.0 | 7.0 | 0.00 | 0.00 | 0.00 | 45 | 1010.8 |
| 20260508233214 | 64 | 242 | 2.0 | 7.0 | 0.00 | 0.00 | 0.00 | 45 | 1010.8 |
| 20260508232714 | 64 | 266 | 2.0 | 6.0 | 0.00 | 0.00 | 0.00 | 45 | 1010.7 |
| 20260508232214 | 64 | 277 | 1.0 | 3.0 | 0.00 | 0.00 | 0.00 | 45 | 1010.7 |
| 20260508231714 | 64 | 278 | 1.0 | 6.0 | 0.00 | 0.00 | 0.00 | 45 | 1010.6 |
| 20260508231213 | 64 | 278 | 2.0 | 6.0 | 0.00 | 0.00 | 0.00 | 45 | 1010.6 |
| 20260508230713 | 64 | 273 | 2.0 | 4.0 | 0.00 | 0.00 | 0.00 | 45 | 1010.6 |
| 20260508230214 | 64 | 258 | 2.0 | 8.0 | 0.00 | 0.00 | 0.00 | 44 | 1010.6 |
| 20260508225935 | 64 | 256 | 2.0 | 8.0 | 0.00 | 0.00 | 0.00 | 44 | 1010.6 |
| 20260508225703 | 64 | 264 | 2.0 | 8.0 | 0.00 | 0.00 | 0.00 | 44 | 1010.5 |
| 20260508224713 | 64 | 246 | 2.0 | 8.0 | 0.00 | 0.00 | 0.00 | 42 | 1010.5 |
| 20260508224213 | 65 | 281 | 3.0 | 7.0 | 0.00 | 0.00 | 0.00 | 44 | 1010.5 |
| 20260508224207 | 65 | 242 | 3.0 | 8.0 | 0.00 | 0.00 | 0.00 | 42 | 1010.4 |
| 20260508223213 | 65 | 164 | 3.0 | 8.0 | 0.00 | 0.00 | 0.00 | 44 | 1010.4 |
| 20260508222714 | 65 | 259 | 3.0 | 9.0 | 0.00 | 0.00 | 0.00 | 42 | 1010.4 |
| 20260508222217 | 65 | 256 | 2.0 | 9.0 | 0.00 | 0.00 | 0.00 | 41 | 1010.4 |
| 20260508221707 | 65 | 265 | 3.0 | 8.0 | 0.00 | 0.00 | 0.00 | 43 | 1010.5 |
| 20260508221426 | 65 | 274 | 2.0 | 8.0 | 0.00 | 0.00 | 0.00 | 43 | 1010.5 |
| 20260508220659 | 65 | 259 | 2.0 | 7.0 | 0.00 | 0.00 | 0.00 | 43 | 1010.5 |
| 20260508220152 | 65 | 255 | 2.0 | 6.0 | 0.00 | 0.00 | 0.00 | 42 | 1010.4 |
| 20260508215921 | 65 | 244 | 2.0 | 8.0 | 0.00 | 0.00 | 0.00 | 42 | 1010.5 |
| 20260508215411 | 65 | 260 | 2.0 | 8.0 | 0.00 | 0.00 | 0.00 | 43 | 1010.5 |
| 20260508214652 | 65 | 281 | 2.0 | 7.0 | 0.00 | 0.00 | 0.00 | 42 | 1010.4 |
| 20260508214153 | 65 | 255 | 3.0 | 9.0 | 0.00 | 0.00 | 0.00 | 42 | 1010.4 |
| 20260508213923 | 65 | 261 | 3.0 | 9.0 | 0.00 | 0.00 | 0.00 | 40 | 1010.5 |
| 20260508213416 | 65 | 267 | 3.0 | 7.0 | 0.00 | 0.00 | 0.00 | 41 | 1010.4 |
| 20260508212655 | 65 | 269 | 3.0 | 9.0 | 0.00 | 0.00 | 0.00 | 41 | 1010.3 |
| 20260508212154 | 66 | 261 | 4.0 | 12.0 | 0.00 | 0.00 | 0.00 | 40 | 1010.3 |
| 20260508212139 | 66 | 243 | 4.0 | 16.0 | 0.00 | 0.00 | 0.00 | 38 | 1010.4 |
| 20260508211417 | 66 | 270 | 3.0 | 16.0 | 0.00 | 0.00 | 0.00 | 39 | 1010.4 |
| 20260508210658 | 66 | 219 | 2.0 | 8.0 | 0.00 | 0.00 | 0.00 | 40 | 1010.3 |
| 20260508210155 | 66 | 232 | 2.0 | 7.0 | 0.00 | 0.00 | 0.00 | 43 | 1010.2 |
| 20260508205655 | 67 | 275 | 4.0 | 10.0 | 0.00 | 0.00 | 0.00 | 40 | 1010.2 |
| 20260508205151 | 68 | 231 | 4.0 | 10.0 | 0.00 | 0.00 | 0.00 | 37 | 1010.3 |
| 20260508204652 | 69 | 266 | 4.0 | 10.0 | 0.00 | 0.00 | 0.00 | 40 | 1010.2 |
| 20260508204144 | 68 | 11 | 4.0 | 10.0 | 0.00 | 0.00 | 0.00 | 40 | 1010.2 |
| 20260508203639 | 68 | 270 | 4.0 | 14.0 | 0.00 | 0.00 | 0.00 | 39 | 1010.3 |
| 20260508203132 | 66 | 265 | 3.0 | 14.0 | 0.00 | 0.00 | 0.00 | 41 | 1010.4 |
| 20260508202627 | 67 | 262 | 4.0 | 10.0 | 0.00 | 0.00 | 0.00 | 39 | 1010.4 |
| 20260508202122 | 66 | 252 | 5.0 | 10.0 | 0.00 | 0.00 | 0.00 | 37 | 1010.5 |
| 20260508201615 | 67 | 305 | 4.0 | 13.0 | 0.00 | 0.00 | 0.00 | 40 | 1010.5 |
| 20260508201108 | 66 | 278 | 4.0 | 13.0 | 0.00 | 0.00 | 0.00 | 39 | 1010.7 |
| 20260508200604 | 66 | 254 | 6.0 | 13.0 | 0.00 | 0.00 | 0.00 | 39 | 1010.7 |
| 20260508200104 | 67 | 268 | 7.0 | 19.0 | 0.00 | 0.00 | 0.00 | 38 | 1010.8 |
| 20260508195553 | 67 | 348 | 5.0 | 19.0 | 0.00 | 0.00 | 0.00 | 41 | 1010.9 |
| 20260508195044 | 67 | 264 | 6.0 | 15.0 | 0.00 | 0.00 | 0.00 | 37 | 1010.9 |
| 20260508194539 | 67 | 314 | 7.0 | 25.0 | 0.00 | 0.00 | 0.00 | 37 | 1010.8 |
| 20260508194031 | 67 | 265 | 7.0 | 25.0 | 0.00 | 0.00 | 0.00 | 37 | 1011.0 |
| 20260508193528 | 68 | 247 | 6.0 | 16.0 | 0.00 | 0.00 | 0.00 | 38 | 1010.9 |
| 20260508193022 | 69 | 243 | 7.0 | 16.0 | 0.00 | 0.00 | 0.00 | 40 | 1011.0 |
| 20260508192516 | 68 | 264 | 8.0 | 21.0 | 0.00 | 0.00 | 0.00 | 39 | 1011.1 |
| 20260508192008 | 69 | 346 | 9.0 | 25.0 | 0.00 | 0.00 | 0.00 | 37 | 1011.1 |
| 20260508191503 | 68 | 246 | 6.0 | 25.0 | 0.00 | 0.00 | 0.00 | 38 | 1011.1 |
| 20260508191220 | 68 | 252 | 6.0 | 11.0 | 0.00 | 0.00 | 0.00 | 43 | 1011.2 |
| 20260508190450 | 67 | 249 | 6.0 | 12.0 | 0.00 | 0.00 | 0.00 | 46 | 1011.2 |
| 20260508185944 | 67 | 281 | 5.0 | 15.0 | 0.00 | 0.00 | 0.00 | 40 | 1011.3 |
| 20260508185439 | 67 | 280 | 5.0 | 15.0 | 0.00 | 0.00 | 0.00 | 39 | 1011.3 |
| 20260508184931 | 65 | 266 | 6.0 | 16.0 | 0.00 | 0.00 | 0.00 | 41 | 1011.4 |
| 20260508184646 | 65 | 272 | 7.0 | 16.0 | 0.00 | 0.00 | 0.00 | 39 | 1011.4 |
| 20260508183920 | 65 | 207 | 7.0 | 23.0 | 0.00 | 0.00 | 0.00 | 39 | 1011.4 |
| 20260508183413 | 66 | 252 | 9.0 | 23.0 | 0.00 | 0.00 | 0.00 | 38 | 1011.4 |
| 20260508182911 | 66 | 246 | 7.0 | 19.0 | 0.00 | 0.00 | 0.00 | 39 | 1011.4 |
| 20260508182403 | 67 | 238 | 7.0 | 17.0 | 0.00 | 0.00 | 0.00 | 39 | 1011.4 |
| 20260508181859 | 66 | 246 | 8.0 | 17.0 | 0.00 | 0.00 | 0.00 | 37 | 1011.4 |
| 20260508181350 | 67 | 251 | 7.0 | 17.0 | 0.00 | 0.00 | 0.00 | 40 | 1011.4 |
| 20260508181106 | 67 | 299 | 7.0 | 16.0 | 0.00 | 0.00 | 0.00 | 41 | 1011.7 |
| 20260508180339 | 65 | 297 | 8.0 | 17.0 | 0.00 | 0.00 | 0.00 | 40 | 1011.7 |
| 20260508175832 | 65 | 230 | 7.0 | 17.0 | 0.00 | 0.00 | 0.00 | 40 | 1011.8 |
| 20260508175328 | 65 | 261 | 6.0 | 18.0 | 0.00 | 0.00 | 0.00 | 40 | 1011.8 |
| 20260508174820 | 66 | 259 | 7.0 | 18.0 | 0.00 | 0.00 | 0.00 | 39 | 1011.7 |
| 20260508174549 | 66 | 265 | 7.0 | 16.0 | 0.00 | 0.00 | 0.00 | 38 | 1011.8 |
| 20260508173808 | 66 | 284 | 7.0 | 16.0 | 0.00 | 0.00 | 0.00 | 42 | 1011.9 |
| 20260508173301 | 66 | 193 | 7.0 | 21.0 | 0.00 | 0.00 | 0.00 | 41 | 1011.9 |
| 20260508172756 | 64 | 257 | 6.0 | 21.0 | 0.00 | 0.00 | 0.00 | 43 | 1012.0 |
| 20260508172251 | 64 | 203 | 7.0 | 23.0 | 0.00 | 0.00 | 0.00 | 43 | 1012.2 |
| 20260508172235 | 65 | 266 | 7.0 | 23.0 | 0.00 | 0.00 | 0.00 | 39 | 1012.0 |
| 20260508171239 | 64 | 329 | 7.0 | 18.0 | 0.00 | 0.00 | 0.00 | 44 | 1012.1 |
| 20260508170732 | 65 | 265 | 7.0 | 18.0 | 0.00 | 0.00 | 0.00 | 38 | 1012.0 |
| 20260508170228 | 66 | 242 | 6.0 | 15.0 | 0.00 | 0.00 | 0.00 | 42 | 1012.0 |
| 20260508165720 | 65 | 263 | 6.0 | 15.0 | 0.00 | 0.00 | 0.00 | 43 | 1011.9 |
| 20260508165215 | 66 | 262 | 6.0 | 15.0 | 0.00 | 0.00 | 0.00 | 41 | 1012.0 |
| 20260508164710 | 66 | 264 | 7.0 | 19.0 | 0.00 | 0.00 | 0.00 | 44 | 1012.1 |
| 20260508164201 | 65 | 211 | 7.0 | 19.0 | 0.00 | 0.00 | 0.00 | 42 | 1012.3 |
| 20260508163658 | 65 | 194 | 6.0 | 16.0 | 0.00 | 0.00 | 0.00 | 47 | 1012.1 |
| 20260508163150 | 65 | 273 | 5.0 | 16.0 | 0.00 | 0.00 | 0.00 | 44 | 1012.2 |
| 20260508162646 | 65 | 298 | 5.0 | 12.0 | 0.00 | 0.00 | 0.00 | 48 | 1012.3 |
| 20260508162358 | 64 | 267 | 5.0 | 12.0 | 0.00 | 0.00 | 0.00 | 42 | 1012.3 |
| 20260508161632 | 64 | 275 | 7.0 | 15.0 | 0.00 | 0.00 | 0.00 | 45 | 1012.5 |
| 20260508161128 | 64 | 209 | 7.0 | 15.0 | 0.00 | 0.00 | 0.00 | 45 | 1012.6 |
| 20260508160620 | 64 | 269 | 6.0 | 15.0 | 0.00 | 0.00 | 0.00 | 43 | 1012.7 |
| 20260508160117 | 64 | 281 | 7.0 | 19.0 | 0.00 | 0.00 | 0.00 | 44 | 1012.8 |
| 20260508155609 | 63 | 254 | 6.0 | 19.0 | 0.00 | 0.00 | 0.00 | 46 | 1012.9 |
| 20260508155104 | 62 | 265 | 6.0 | 16.0 | 0.00 | 0.00 | 0.00 | 47 | 1013.1 |
| 20260508154556 | 62 | 196 | 7.0 | 17.0 | 0.00 | 0.00 | 0.00 | 46 | 1013.2 |
| 20260508154051 | 61 | 207 | 6.0 | 17.0 | 0.00 | 0.00 | 0.00 | 44 | 1013.3 |
| 20260508153544 | 61 | 218 | 5.0 | 16.0 | 0.00 | 0.00 | 0.00 | 48 | 1013.3 |
| 20260508153038 | 61 | 267 | 6.0 | 16.0 | 0.00 | 0.00 | 0.00 | 47 | 1013.4 |
| 20260508152533 | 61 | 218 | 6.0 | 15.0 | 0.00 | 0.00 | 0.00 | 47 | 1013.4 |
| 20260508152031 | 61 | 249 | 5.0 | 15.0 | 0.00 | 0.00 | 0.00 | 45 | 1013.4 |
| 20260508151756 | 60 | 252 | 4.0 | 10.0 | 0.00 | 0.00 | 0.00 | 47 | 1013.4 |
| 20260508151247 | 60 | 192 | 6.0 | 16.0 | 0.00 | 0.00 | 0.00 | 46 | 1013.7 |
| 20260508150811 | 59 | 214 | 6.0 | 16.0 | 0.00 | 0.00 | 0.00 | 47 | 1013.6 |
| 20260508150030 | 60 | 194 | 5.0 | 12.0 | 0.00 | 0.00 | 0.00 | 46 | 1013.6 |
| 20260508145528 | 59 | 217 | 6.0 | 12.0 | 0.00 | 0.00 | 0.00 | 50 | 1013.7 |
| 20260508145259 | 59 | 246 | 6.0 | 14.0 | 0.00 | 0.00 | 0.00 | 48 | 1013.7 |
| 20260508144529 | 59 | 265 | 5.0 | 14.0 | 0.00 | 0.00 | 0.00 | 45 | 1013.8 |
| 20260508144030 | 59 | 231 | 5.0 | 10.0 | 0.00 | 0.00 | 0.00 | 50 | 1013.8 |
| 20260508143530 | 59 | 229 | 4.0 | 10.0 | 0.00 | 0.00 | 0.00 | 47 | 1013.8 |
| 20260508143036 | 59 | 259 | 3.0 | 8.0 | 0.00 | 0.00 | 0.00 | 54 | 1013.8 |
| 20260508142802 | 58 | 265 | 4.0 | 10.0 | 0.00 | 0.00 | 0.00 | 53 | 1013.8 |
| 20260508142032 | 58 | 250 | 5.0 | 10.0 | 0.00 | 0.00 | 0.00 | 49 | 1013.9 |
| 20260508141754 | 58 | 246 | 4.0 | 10.0 | 0.00 | 0.00 | 0.00 | 52 | 1013.9 |